星链-35050 (STARLINK-35050)

导读 | 豆包AI

STARLINK-35050是美国太空探索技术公司(SpaceX)星链星座的成员卫星,星链计划旨在搭建全球卫星互联网通信星座,为全球范围提供低成本高速互联网服务。该卫星于2025年9月3日发射升空,入轨后参与星链星座组网,补充星座覆盖能力与通信容量,进一步完善全球天基互联网服务网络。

Basic Information
目录编号:
65440
目录名称:
STARLINK-35050
国际标识:
2025-194G
轨道中心:
EARTH
卫星名称:
星链-35050
卫星全名:
星链-35050 (STARLINK-35050)
卫星状态:
在轨 (已飞行192 天)
发射日期:
2025-09-03 UTC
国别 :
美国 (US)
星等 :
--
Orbit Information
数据来源 国际轨道数据 AOE轨道数据
星历时间 2026-03-13T11:47:46+0800
1天前
查看轨道信息
2026-03-12T16:00:00+0800
2天前
查看轨道信息
半长轴 6927.611km 6927.609km
偏心率 0.0001387 0.0001173
轨道倾角 97.602° 97.603°
近地点辐角 79.325° 78.345°
升交点赤经 287.874° 287.060°
平近点角 280.814° 133.680°
近地点 548.513km 548.659km
远地点 550.435km 550.285km
周期 95.639分钟 95.639分钟
每日圈数 15.056622 15.056628
Detailed Information
固有亮度:
5
最大亮度:
2.5
卫星平台:
Starlink V1.0
覆盖范围:
全球
运营商:
太空探索技术公司
运营商所在国:
美国
制造商(研发单位):
太空探索技术公司
制造商所在国:
美国
使用方式:
暂无
Satellite Introduction
Starlink 计划是 SpaceX 推出的全球卫星互联网项目,通过发射低轨道卫星,为全球尤其是偏远地区提供高速、低延迟的互联网服务。自 2019 年起,Starlink 已部署数千颗卫星,旨在缩小全球数字鸿沟,推动互联网普及。该项目还为军事、航空等行业提供通信支持,带来广泛经济效益。
2D Orbit Map
3D Orbit Map
Orbit Altitude Analysis Chart
Orbit Inclination Analysis Chart
Orbit Comprehensive Analysis Chart
View Comprehensive Chart